599  
ASUS45 KBOU 131410  
RWRCO  
 
WEATHER ROUNDUP FOR COLORADO  
NATIONAL WEATHER SERVICE DENVER/BOULDER CO  
800 AM MDT TUE APR 13 2021  
 
NOTE: "FAIR" INDICATES FEW OR NO CLOUDS BELOW 12000 FEET WITH NO  
SIGNIFICANT WEATHER AND/OR S TO VISIBILITY
.  
 
COZ001>005-013-030-031-131500-   
..NORTHWEST COLORADO
 
 
 
CITY SKY/WX TMP DP RH WIND PRES REMARKS
 
CRAIG FAIR 27 17 66 CALM 30.05S  
HAYDEN FAIR 24 16 71 CALM 30.05S  
MEEKER FAIR 26 13 57 S3 30.03R  
RANGELY FAIR 32 13 45 NE15G25 30.05R WCI 22  
RABBIT EARS PA CLOUDY 19 18 93 SE6 30.05R WCI 11  
STEAMBOAT SPGS FAIR 28 16 62 CALM 30.02R  
WALDEN FAIR 21 13 73 CALM 30.08S  

 
 
COZ006>008-011-131500-   
..WEST CENTRAL VALLEYS
 
 
 
CITY SKY/WX TMP DP RH WIND PRES REMARKS
 
GRAND JUNCTION FAIR 46 11 24 NE9 29.90R  
MONTROSE PTSUNNY 43 13 29 SE7 29.95R  
EAGLE CLOUDY 38 17 42 S3 30.02R  
RIFLE FAIR 37 13 37 N6 29.97S  
DELTA FAIR 46 14 28 NE5 29.93R  
NUCLA NOT AVBL  

 
 
COZ017>023-064>068-131500-   
..SOUTHWEST COLORADO
 
 
 
CITY SKY/WX TMP DP RH WIND PRES REMARKS
 
DURANGO NOT AVBL  
CORTEZ FAIR 44 22 41 E5 29.91R  
PAGOSA SPRINGS CLOUDY 44 24 45 E5 30.05R  
TELLURIDE CLOUDY 43 14 31 CALM 30.01R  
WOLF CREEK PAS FOG 23 23 100 SW15 30.17S VSB 3/4 WCI 10  

 
 
COZ009-010-012-014-032>034-037-058>063-131500-   
..CENTRAL COLORADO
 
 
 
CITY SKY/WX TMP DP RH WIND PRES REMARKS
 
ASPEN CLOUDY 40 18 41 S5 29.98R  
BUENA VISTA SNOW 27 23 85 E7 30.17R VSB 1/2 WCI 19  
COPPER MTN CLOUDY 25 19 80 S14 30.09R HAZE WCI 13  
BERTHOUD PASS LGT SNOW 12 0 57 S12G18 30.08S VSB 3/4 WCI -2  
DAKOTA HILL CLOUDY 10 9 92 S8 30.09R VSB<1/4 WCI -1  
COTTONWOOD PAS LGT SNOW 23 23 100 SE8 30.14R VSB 3/4 WCI 14  
GUNNISON CLOUDY 38 18 44 N10 30.02R  
GRANBY CLOUDY 28 24 87 CALM 30.04F  
KREMMLING PTSUNNY 30 18 59 CALM 30.06S  
LEADVILLE SNOW 21 19 92 S12 30.08R VSB 1/2 WCI 9  
MONARCH PASS CLOUDY 14 10 85 MISG 30.21R  
SALIDA CLOUDY 32 19 57 SE13G20 30.24R WCI 22  
SUNLIGHT N/A 30 16 55 SW6 30.06F WCI 24  
WILKERSON PASS LGT SNOW N/A N/A N/A CALM 30.15S  

 
 
COZ069>075-131500-   
..SAN LUIS VALLEY/SANGRE DE CRISTO MOUNTAINS
 
 
 
CITY SKY/WX TMP DP RH WIND PRES REMARKS
 
ALAMOSA FAIR 36 20 52 SE3 30.07R  
DEL NORTE CLOUDY 29 27 89 W5 30.10S WCI 24  
LA VETA PASS FOG 16 14 93 E6 30.14R VSB<1/4 WCI 7  
SAGUACHE CLOUDY 34 19 55 SE6 30.09S WCI 29  

 
 
COZ035-036-038>040-131500-   
..NORTHERN COLORADO FRONT RANGE
 
 
 
CITY SKY/WX TMP DP RH WIND PRES REMARKS
 
DENVER INTL AP CLOUDY 31 14 49 E15 30.23R WCI 20  
AURORA CLOUDY 30 14 51 E13 30.23R WCI 20  
WATKINS NOT AVBL  
ERIE CLOUDY 29 26 88 N5 30.26R WCI 24  
BOULDER LGT SNOW 28 28 100 CALM 30.26R VSB 1  
CENTENNIAL CLOUDY 31 13 47 N12 30.21R WCI 22  
BROOMFIELD CLOUDY 28 27 93 N8 30.24S WCI 20  
FORT COLLINS LGT SNOW 29 19 66 E7 30.28R WCI 22  
LONGMONT LGT SNOW 31 25 80 CALM 30.28S VSB 1  

 
 
COZ041-046-047-076>085-087-088-131500-   
..PIKES PEAK/PALMER DIVIDE AND SOUTHERN FOOTHILLS
 
 
 
CITY SKY/WX TMP DP RH WIND PRES REMARKS
 
COLO. SPRINGS CLOUDY 33 11 39 SE16 30.23R WCI 23  
A. F. ACADEMY CLOUDY 31 10 41 SE20 30.18S WCI 19  
SCHRIEVER AFB NOT AVBL  
CHEYENNE MTN CLOUDY 28 11 50 SE17 30.15S WCI 15  
ELLICOTT CLOUDY 32 10 40 SE10 30.25R WCI 24  
FALCON NOT AVBL  
FORT CARSON CLOUDY 33 11 40 SE13 30.23R WCI 24  
LIMON CLOUDY 32 13 45 E9 30.25R WCI 24  
MONUMENT HILL CLOUDY 28 14 54 SE15 30.21R WCI 17  
CANON CITY CLOUDY 37 18 44 E16 30.23S  
WALSENBURG NOT AVBL  
TRINIDAD CLOUDY 34 18 52 CALM 30.21R  

 
 
COZ042>045-048>051-090-091-131500-   
..NORTHEAST COLORADO
 
 
 
CITY SKY/WX TMP DP RH WIND PRES REMARKS
 
GREELEY CLOUDY N/A N/A N/A NE9 30.29R  
AKRON N/A 32 15 49 NE10 30.26R WCI 24  
BURLINGTON CLOUDY 37 16 42 NE10 30.28R  
WRAY CLOUDY 36 18 48 N9 30.30S  
YUMA CLOUDY 34 12 40 NW10 30.28R WCI 26  
STERLING PTSUNNY 32 19 59 N8 30.29R WCI 25  
HOLYOKE FAIR 37 21 52 NW14 30.29S  
FORT MORGAN CLOUDY 32 13 45 N9 30.28S WCI 24  

 
 
COZ086-089-092>099-131500-   
..SOUTHEAST COLORADO
 
 
 
CITY SKY/WX TMP DP RH WIND PRES REMARKS
 
PUEBLO CLOUDY 38 14 37 SE17 30.25R  
LA JUNTA CLOUDY 38 16 40 E10 30.27R  
LAMAR CLOUDY 38 17 42 E7 30.27R  
SPRINGFIELD N/A 35 15 44 E8 30.26R WCI 29  

 
 
 
CLICK HERE TO GO TO PREVIOUS BULLETINS.

The Nexlab CO Page Main Text Page